Overview Statistics Trail Chart Weather Telemetry Raw packets
 

This is the latest recevied weather packets stored in our database for station/object KL4TQ. If no packets are shown the sender has not sent any weather packets the latest 10 day(s).

<< 47 48 49 50 51 52 53 >>
Time Temp. Humidity Pressure Rain* Wind** Luminosity Snow
1777386970 5.56° C 63% 857 hPa 0 mm - 57 W/m² -
1777386670 5° C 64% 857 hPa 0 mm - 41 W/m² -
1777386369 5° C 64% 857 hPa 0 mm - 29 W/m² -
1777386068 5° C 64% 857 hPa 0 mm - 23 W/m² -
1777385769 5.56° C 64% 857 hPa 0 mm - 20 W/m² -
1777385471 6.11° C 61% 857 hPa 0 mm - 17 W/m² -
1777385168 6.11° C 60% 857 hPa 0 mm - 15 W/m² -
1777384868 6.11° C 60% 857 hPa 0 mm - 13 W/m² -
1777384568 6.11° C 60% 857 hPa 0 mm - 11 W/m² -
1777384269 6.11° C 60% 857 hPa 0 mm - 10 W/m² -
1777383969 5.56° C 60% 857 hPa 0 mm - 8 W/m² -
1777383668 5.56° C 62% 857 hPa 0 mm - 7 W/m² -
1777383373 5° C 63% 857 hPa 0 mm - 6 W/m² -
1777383069 5° C 63% 857 hPa 0 mm - 5 W/m² -
1777382769 5° C 64% 856 hPa 0 mm - 4 W/m² -
1777382468 5.56° C 63% 856 hPa 0 mm - 3 W/m² -
1777382169 5.56° C 62% 856 hPa 0 mm - 2 W/m² -
1777381869 5.56° C 62% 856 hPa 0 mm - 1 W/m² -
1777381569 5.56° C 62% 856 hPa 0 mm - 1 W/m² -
1777381269 5.56° C 62% 856 hPa 0 mm - 1 W/m² -
1777380969 5.56° C 62% 856 hPa 0 mm - 1 W/m² -
1777380669 5.56° C 62% 856 hPa 0 mm - 0 W/m² -
1777380369 6.11° C 61% 856 hPa 0 mm - 0 W/m² -
1777380068 6.11° C 59% 856 hPa 0 mm - 0 W/m² -
1777379769 6.11° C 59% 857 hPa 0 mm - 0 W/m² -

* Rain latest hour (hover to see other rain measurements)
** Current wind speed in m/s (hover to see current wind gust speed)